Weather History for KAZO - March, 2014

Change the Weather History Date:

Friday, March 28, 2014

  Actual Average Record
Temperature  
Mean Temperature 42 °F 42 °F  
Max Temperature 51 °F 51 °F 74 °F (1968)
Min Temperature 32 °F 32 °F 12 °F (1955)
Degree Days  
Heating Degree Days 23 24  
Month to date heating degree days 1083 816  
Since 1 July heating degree days 6251 5589  
Cooling Degree Days 0 0  
Month to date cooling degree days 0 0  
Year to date cooling degree days 0 0  
Moisture  
Dew Point 34 °F    
Average Humidity 82    
Maximum Humidity 89    
Minimum Humidity 75    
Precipitation  
Precipitation 0.03 in 0.07 in 1.50 in (1985)
Month to date precipitation 1.23 2.02  
Year to date precipitation 3.76 5.26  
Sea Level Pressure  
Sea Level Pressure 29.85 in    
Wind  
Wind Speed 14 mph (West)    
Max Wind Speed 29 mph    
Max Gust Speed 37 mph    
Visibility 9 miles    
Events Rain , Snow    
T = Trace of Precipitation, MM = Missing Value Source: NWS Daily Summary

Daily Weather History Graph

Daily Weather History Graph

Search for Another Location

Airport or City:

Trip Planner

Search our weather history database for the weather conditions in past years. The results will help you decide how hot, cold, wet, or windy it might be!

Date:

Astronomy

Mar. 28, 2014 Rise Set
Actual Time 7:31 AM EDT 8:03 PM EDT
Civil Twilight 7:03 AM EDT 8:31 PM EDT
Nautical Twilight 6:30 AM EDT 9:04 PM EDT
Astronomical Twilight 5:56 AM EDT 9:39 PM EDT
Moon 6:04 AM EDT (3/28) 5:57 PM EDT (3/28)
Length of Visible Light 13h 28m
Length of Day
12h 31m
Waning Crescent, 6% of the Moon is Illuminated
Mar 28
Waning Crescent
Mar 30
New
Apr 7
First Quarter
Apr 15
Full
Apr 22
Last Quarter

Hourly Weather History & Observations

Time (EDT) Temp. Windchill Dew Point Humidity Pressure Visibility Wind Dir Wind Speed Gust Speed Precip Events Conditions
12:53 AM 46.9 °F - 39.0 °F 74% 29.56 in 10.0 mi South 18.4 mph 26.5 mph 0.00 in   Overcast
1:03 AM 46.0 °F 38.5 °F 39.0 °F 76% 29.54 in 10.0 mi South 19.6 mph - N/A   Overcast
1:53 AM 48.9 °F - 41.0 °F 74% 29.54 in 10.0 mi SSW 17.3 mph 29.9 mph 0.00 in Rain Light Rain
2:53 AM 50.0 °F - 43.0 °F 77% 29.54 in 10.0 mi SSW 25.3 mph 33.4 mph 0.00 in   Overcast
3:53 AM 50.0 °F - 44.1 °F 80% 29.53 in 10.0 mi SSW 18.4 mph 32.2 mph N/A   Overcast
4:53 AM 51.1 °F - 44.1 °F 77% 29.52 in 10.0 mi SSW 23.0 mph 28.8 mph N/A   Overcast
5:53 AM 50.0 °F - 45.0 °F 83% 29.52 in 10.0 mi SSW 19.6 mph - 0.00 in Rain Light Rain
6:53 AM 46.9 °F - 39.9 °F 77% 29.56 in 10.0 mi WSW 21.9 mph 29.9 mph 0.00 in   Overcast
7:49 AM 42.8 °F 36.6 °F 39.2 °F 87% 29.59 in 6.0 mi WSW 11.5 mph - 0.01 in Rain Light Rain
7:53 AM 43.0 °F 36.0 °F 39.9 °F 89% 29.61 in 6.0 mi WSW 13.8 mph - 0.01 in Rain Light Rain
8:53 AM 42.1 °F 33.1 °F 39.0 °F 89% 29.67 in 5.0 mi West 20.7 mph 27.6 mph 0.00 in Rain Light Rain
9:53 AM 36.0 °F 26.0 °F 33.1 °F 89% 29.75 in 5.0 mi West 17.3 mph - 0.01 in Snow Light Snow
10:46 AM 36.0 °F 25.3 °F 32.0 °F 86% 29.78 in 1.5 mi WNW 19.6 mph 28.8 mph 0.01 in Snow Light Snow
10:53 AM 35.1 °F 23.8 °F 32.0 °F 89% 29.81 in 8.0 mi WNW 20.7 mph 28.8 mph 0.01 in Snow Light Snow
11:53 AM 36.0 °F 26.0 °F 32.0 °F 86% 29.88 in 10.0 mi NW 17.3 mph 28.8 mph 0.00 in   Overcast
12:53 PM 36.0 °F 26.0 °F 32.0 °F 86% 29.94 in 10.0 mi NW 17.3 mph - N/A   Overcast
1:53 PM 37.0 °F 28.1 °F 32.0 °F 82% 29.97 in 10.0 mi NW 15.0 mph - N/A   Overcast
2:53 PM 37.0 °F 30.4 °F 30.9 °F 79% 30.02 in 10.0 mi West 9.2 mph - N/A   Overcast
3:53 PM 37.9 °F 32.1 °F 30.9 °F 76% 30.06 in 10.0 mi West 8.1 mph - N/A   Overcast
4:53 PM 37.0 °F 29.3 °F 30.9 °F 79% 30.10 in 10.0 mi WSW 11.5 mph - N/A   Overcast
5:53 PM 36.0 °F 27.5 °F 28.9 °F 76% 30.14 in 10.0 mi NW 12.7 mph - N/A   Overcast
6:53 PM 34.0 °F 25.5 °F 28.0 °F 79% 30.17 in 10.0 mi NW 11.5 mph - N/A   Overcast
7:53 PM 33.1 °F 23.4 °F 27.0 °F 78% 30.15 in 10.0 mi NNW 13.8 mph - N/A   Overcast
8:53 PM 32.0 °F 22.5 °F 26.1 °F 79% 30.19 in 10.0 mi North 12.7 mph - N/A   Overcast
9:53 PM 32.0 °F 24.2 °F 26.1 °F 79% 30.20 in 10.0 mi NNE 9.2 mph - N/A   Overcast
10:53 PM 33.1 °F - 27.0 °F 78% 30.20 in 10.0 mi Calm Calm - N/A   Overcast
11:49 PM 33.8 °F 29.6 °F 26.6 °F 75% 30.15 in 10.0 mi ENE 4.6 mph - N/A   Overcast
11:53 PM 33.1 °F 30.0 °F 27.0 °F 78% 30.18 in 10.0 mi NE 3.5 mph - N/A   Overcast